GPS BIIF-6 (39741 NORAD) Tracking and Keplerian Element Data

This shows tracking and keplerian element data for the satellite.

Feedback or suggestion? Click here.




ElementValue
Catalog39741
NameGPS BIIF-6
Epoch Orbit7853
Epoch Day34.38832419
Epoch Year2025
RAAN350.9055
Inclination56.6803
Eccentricity0.0036305
Argument of Perigee317.4475
Mean Anonmoly42.2724
Mean Motion2.00551791
Decay Rate-7.9E-07
L11 39741U 14026A 25034.38832419 -.00000079 00000+0 00000+0 0 9994
L22 39741 56.6803 350.9055 0036305 317.4475 42.2724 2.00551791 78533



Live tracking and technical data element details for GPS BIIF-6 (NORAD 39741). GPS BIIF-6 can be tracked NOW for your location showing map with azimuth and elevation plus other details from your city location.







IsCatalogInMostPopularTable: catalog: 39741, numindb: 596
Update: records affected: 1



GetName: 39741 GPS BIIF-6

Hit Count: updated at: Thu, 22 May 2025 04:19:06 GMT